EN

Hourly Weather Bolshie Polyany

Today, 16 April, Friday

Time Temperature Precipitation Wind Pressure Humidity
00:00 +10°C° 0 mm 4 mps 743 mmHg 88%
01:00 +9°C° 0 mm 5 mps 743 mmHg 88%
02:00 +9°C° 0 mm 5 mps 743 mmHg 89%
03:00 +9°C° 0 mm 5 mps 743 mmHg 90%
04:00 +8°C° 0 mm 4 mps 743 mmHg 91%
05:00 +8°C° 0 mm 4 mps 744 mmHg 92%
06:00 +10°C° 0 mm 4 mps 744 mmHg 89%
07:00 +10°C° 0 mm 4 mps 744 mmHg 87%
08:00 +11°C° 0 mm 4 mps 744 mmHg 85%
09:00 +11°C° 0 mm 4 mps 745 mmHg 81%
10:00 +12°C° 0 mm 4 mps 745 mmHg 78%
11:00 +13°C° 0 mm 4 mps 745 mmHg 75%
12:00 +13°C° 0.3 mm 5 mps 745 mmHg 75%
13:00 +13°C° 0.3 mm 5 mps 745 mmHg 75%
14:00 +14°C° 0.3 mm 5 mps 745 mmHg 75%
15:00 +13°C° 1 mm 5 mps 745 mmHg 77%
16:00 +12°C° 1 mm 5 mps 745 mmHg 80%
17:00 +12°C° 1 mm 5 mps 745 mmHg 82%
18:00 +11°C° 0.5 mm 4 mps 745 mmHg 84%
19:00 +11°C° 0.5 mm 4 mps 745 mmHg 86%
20:00 +10°C° 0.5 mm 4 mps 745 mmHg 88%
21:00 +10°C° 2.1 mm 4 mps 745 mmHg 89%
22:00 +10°C° 2.1 mm 4 mps 745 mmHg 91%
23:00 +10°C° 2.1 mm 4 mps 746 mmHg 92%

Tomorrow, 17 April, Saturday

Time Temperature Precipitation Wind Pressure Humidity
00:00 +10°C° 0 mm 4 mps 746 mmHg 92%
01:00 +8°C° 0 mm 4 mps 746 mmHg 93%
02:00 +8°C° 0 mm 4 mps 746 mmHg 93%
03:00 +8°C° 0 mm 4 mps 746 mmHg 91%
04:00 +8°C° 0 mm 4 mps 747 mmHg 90%
05:00 +8°C° 0 mm 4 mps 747 mmHg 89%
06:00 +8°C° 0 mm 4 mps 747 mmHg 88%
07:00 +8°C° 0 mm 4 mps 747 mmHg 87%
08:00 +8°C° 0 mm 4 mps 747 mmHg 86%
09:00 +10°C° 0 mm 4 mps 747 mmHg 83%
10:00 +9°C° 0 mm 5 mps 747 mmHg 80%
11:00 +10°C° 0 mm 5 mps 747 mmHg 77%
12:00 +12°C° 0.1 mm 5 mps 747 mmHg 75%
13:00 +12°C° 0.1 mm 5 mps 747 mmHg 72%
14:00 +13°C° 0.1 mm 5 mps 747 mmHg 70%
15:00 +13°C° 0 mm 5 mps 747 mmHg 68%
16:00 +13°C° 0 mm 5 mps 746 mmHg 66%
17:00 +13°C° 0 mm 5 mps 746 mmHg 64%
18:00 +12°C° 0 mm 5 mps 746 mmHg 64%
19:00 +10°C° 0 mm 5 mps 747 mmHg 65%
20:00 +9°C° 0 mm 5 mps 747 mmHg 66%
21:00 +8°C° 0 mm 5 mps 747 mmHg 65%
22:00 +7°C° 0 mm 5 mps 747 mmHg 65%
23:00 +6°C° 0 mm 5 mps 747 mmHg 65%

Day after tomorrow, 18 April, Sunday

Time Temperature Precipitation Wind Pressure Humidity
00:00 +6°C° 0 mm 5 mps 747 mmHg 66%
01:00 +5°C° 0 mm 4 mps 747 mmHg 67%
02:00 +5°C° 0 mm 4 mps 747 mmHg 68%
03:00 +4°C° 0 mm 4 mps 747 mmHg 70%
04:00 +4°C° 0 mm 4 mps 747 mmHg 72%
05:00 +4°C° 0 mm 4 mps 747 mmHg 73%
06:00 +5°C° 0 mm 5 mps 747 mmHg 71%
07:00 +5°C° 0 mm 5 mps 747 mmHg 68%
08:00 +6°C° 0 mm 5 mps 747 mmHg 65%
09:00 +7°C° 0 mm 5 mps 747 mmHg 66%
10:00 +7°C° 0 mm 5 mps 747 mmHg 67%
11:00 +7°C° 0 mm 5 mps 747 mmHg 68%
12:00 +7°C° 0 mm 5 mps 747 mmHg 69%
13:00 +7°C° 0 mm 5 mps 748 mmHg 70%
14:00 +7°C° 0 mm 5 mps 748 mmHg 71%
15:00 +7°C° 0 mm 4 mps 748 mmHg 73%
16:00 +7°C° 0 mm 4 mps 748 mmHg 76%
17:00 +7°C° 0 mm 4 mps 749 mmHg 78%
18:00 +7°C° 0 mm 3 mps 749 mmHg 81%
19:00 +5°C° 0 mm 3 mps 749 mmHg 85%
20:00 +5°C° 0 mm 2 mps 749 mmHg 88%
21:00 +5°C° 0 mm 2 mps 749 mmHg 89%
22:00 +5°C° 0 mm 2 mps 749 mmHg 90%
23:00 +3°C° 0 mm 3 mps 749 mmHg 90%

19 April, Monday

Time Temperature Precipitation Wind Pressure Humidity
00:00 +3°C° 0 mm 3 mps 749 mmHg 89%
01:00 +3°C° 0 mm 3 mps 749 mmHg 87%
02:00 +3°C° 0 mm 3 mps 749 mmHg 86%
03:00 +3°C° 0 mm 3 mps 749 mmHg 85%
04:00 +3°C° 0 mm 4 mps 749 mmHg 83%
05:00 +3°C° 0 mm 4 mps 749 mmHg 82%
06:00 +4°C° 0 mm 4 mps 749 mmHg 82%
07:00 +4°C° 0 mm 4 mps 749 mmHg 82%
08:00 +5°C° 0 mm 5 mps 749 mmHg 82%
09:00 +5°C° 0 mm 4 mps 749 mmHg 82%
10:00 +5°C° 0 mm 4 mps 750 mmHg 83%
11:00 +5°C° 0 mm 4 mps 750 mmHg 83%
12:00 +6°C° 0 mm 4 mps 750 mmHg 82%
13:00 +6°C° 0 mm 4 mps 750 mmHg 80%
14:00 +6°C° 0 mm 4 mps 750 mmHg 79%
15:00 +6°C° 0 mm 4 mps 749 mmHg 78%
16:00 +6°C° 0 mm 4 mps 749 mmHg 77%
17:00 +6°C° 0 mm 4 mps 749 mmHg 76%
18:00 +6°C° 0 mm 4 mps 749 mmHg 77%
19:00 +5°C° 0 mm 4 mps 749 mmHg 78%
20:00 +5°C° 0 mm 4 mps 749 mmHg 79%
21:00 +5°C° 0 mm 4 mps 749 mmHg 80%
22:00 +3°C° 0 mm 5 mps 749 mmHg 80%
23:00 +3°C° 0 mm 5 mps 749 mmHg 81%

20 April, Tuesday

Time Temperature Precipitation Wind Pressure Humidity
00:00 +3°C° 0 mm 5 mps 748 mmHg 79%
01:00 +3°C° 0 mm 4 mps 748 mmHg 77%
02:00 +3°C° 0 mm 4 mps 748 mmHg 75%
03:00 +1°C° 0 mm 4 mps 747 mmHg 76%
04:00 +1°C° 0 mm 5 mps 747 mmHg 77%
05:00 0°C° 0 mm 5 mps 747 mmHg 78%
06:00 +1°C° 0 mm 5 mps 746 mmHg 77%
07:00 +1°C° 0 mm 5 mps 746 mmHg 76%
08:00 +2°C° 0 mm 5 mps 746 mmHg 75%
09:00 +3°C° 0 mm 6 mps 745 mmHg 72%
10:00 +4°C° 0 mm 6 mps 745 mmHg 68%
11:00 +5°C° 0 mm 6 mps 744 mmHg 65%
12:00 +5°C° 0.1 mm 7 mps 743 mmHg 69%
13:00 +4°C° 0.1 mm 7 mps 742 mmHg 73%
14:00 +3°C° 0.1 mm 7 mps 741 mmHg 77%
15:00 +1°C° 2.2 mm 8 mps 740 mmHg 83%
16:00 0°C° 2.2 mm 8 mps 739 mmHg 90%
17:00 -1°C° 2.2 mm 8 mps 738 mmHg 96%
18:00 -1°C° 2.1 mm 8 mps 738 mmHg 96%
19:00 -1°C° 2.1 mm 7 mps 737 mmHg 96%
20:00 -1°C° 2.1 mm 7 mps 737 mmHg 96%
21:00 0°C° 0.3 mm 7 mps 736 mmHg 96%
22:00 +1°C° 0.3 mm 6 mps 736 mmHg 96%
23:00 +2°C° 0.3 mm 6 mps 735 mmHg 96%

21 April, Wednesday

Time Temperature Precipitation Wind Pressure Humidity
00:00 +3°C° 0.2 mm 5 mps 735 mmHg 96%
01:00 +3°C° 0.2 mm 5 mps 734 mmHg 96%
02:00 +3°C° 0.2 mm 5 mps 734 mmHg 96%
03:00 +3°C° 0.2 mm 5 mps 734 mmHg 96%
04:00 +5°C° 0.2 mm 5 mps 733 mmHg 95%
05:00 +5°C° 0.2 mm 5 mps 733 mmHg 95%
06:00 +6°C° 0.1 mm 5 mps 733 mmHg 94%
07:00 +6°C° 0.1 mm 5 mps 733 mmHg 93%
08:00 +6°C° 0.1 mm 5 mps 733 mmHg 92%
09:00 +6°C° 0.4 mm 5 mps 732 mmHg 92%
10:00 +6°C° 0.4 mm 5 mps 732 mmHg 92%
11:00 +6°C° 0.4 mm 5 mps 732 mmHg 92%
12:00 +6°C° 0.7 mm 5 mps 732 mmHg 92%
13:00 +6°C° 0.7 mm 5 mps 732 mmHg 92%
14:00 +6°C° 0.7 mm 5 mps 732 mmHg 92%
15:00 +5°C° 0.4 mm 5 mps 732 mmHg 93%
16:00 +3°C° 0.4 mm 5 mps 733 mmHg 94%
17:00 +3°C° 0.4 mm 5 mps 733 mmHg 95%
18:00 +2°C° 0.3 mm 5 mps 734 mmHg 96%
19:00 +3°C° 0.3 mm 4 mps 734 mmHg 96%
20:00 +3°C° 0.3 mm 4 mps 734 mmHg 97%
21:00 +3°C° 0.2 mm 4 mps 735 mmHg 97%
22:00 +3°C° 0.2 mm 4 mps 735 mmHg 97%
23:00 +4°C° 0.2 mm 4 mps 736 mmHg 97%
Show more

We Need Your Consent

Meteoprog and our Service Providers may store and access personal data such as cookies, device identifiers or other similar technologies on your device and process such data to personalise content and ads, as well as provide social media features and to analyse the traffic.

  • Store and/or access information on your device

    Cookies, device identifiers or other information can be stored or accessed on your device for the purposes indicated above.

  • Personalised ads and content, ad and content measurement, audience insights, and products development

    Ads and content can be personalised based on a profile. More data can be added to better personalise ads and content. Ad and content performance can be measured. Insights about the audience who saw the ads and content can be derived. Such data can be used to develop or improve user’s experience, systems and software.

By clicking ‘I Agree’ you will allow the use of indicated cookies, device identifiers, web beacons or other similar technologies. Your settings can be changed in the browser on your device.

For certain purposes, legitimate interests may be relied on, rather than consent. You can read more about this in our Privacy and Cookie Policy.